Погода в Покрово-Пригородном

Россия / Тамбовская область     52°41′32″N   41°26′09″E
темп.,
°C
ветер,
м/с
пор.,
м/с
влажн.,
%
обл.,
%
осадки,
мм/ч
давл.,
гПа
погр.,
м
23 мая, пн
пн2300:00+5ссв510846 0.0 1001394
03:00+2с49865 0.0 1002221
06:00+2с59755 0.0 1004391
09:00+6ссз675457 0.0 10041272
12:00+9ссз6750100 0.0 10051745
15:00+8сз5857100 0.0 10061540
18:00+8сз3763100 0.0 10061181
21:00+4зюз33795 0.0 100641
24 мая, вт
вт2400:00+3юз49835 0.0 1006156
03:00+3зюз4109317 0.0 1006169
06:00+6з5127389 0.0 1006383
09:00+10з5759100 0.0 1006690
12:00+13з7947100 0.0 10062180
15:00+12сз7945100 0.0 10072129
18:00+9ссз4668100 0.1 10091115
21:00+6ссз378271 0.2 1011238
25 мая, ср
ср2500:00+2ссз34925 0.0 101254
03:00+1ссз33935 0.0 101354
06:00+3ссз34835 0.0 1014196
09:00+8сз456063 0.0 10151397
12:00+8сз4557100 0.1 10151178
15:00+9сз4558100 0.1 10161263
18:00+8сз4564100 0.1 1017867
21:00+6зсз2374100 0.1 101771
26 мая, чт
чт2600:00+4зюз2281100 0.0 101719
03:00+3зюз228793 0.0 101714
06:00+6ююз2478100 0.0 1015143
09:00+12ююз577035 0.0 1013687
12:00+18юз576234 0.0 10101145
15:00+18зюз6116375 1.6 10081523
18:00+14юз51281100 1.3 1007444
21:00+11юз61490100 1.8 1005747
27 мая, пт
пт2700:00+11зюз81595100 1.2 1002995
03:00+11зюз8148989 1.4 10011074
06:00+10зюз8158973 0.1 10011100
09:00+11з91585100 0.3 10011362
12:00+10зсз91588100 1.2 10031099
15:00+10зсз61488100 1.4 1005720
18:00+14зсз59787 0.1 10061053
21:00+10з512924 0.4 1008408